FW4301 Weather Reports


Display with metric or nautical units.
time (UTC)temp
F
wind
direction
speed
MPH
gust
MPH
rain 1hr
in
rain 24hr
in
rain mn
in
humidity
%
barometer
mb
20260509230052 95 0 0.0 0.0 0.00 0.00 0.00 26 1007.8
20260509225529 95 0 0.0 0.0 0.00 0.00 0.00 25 1007.8
20260509225028 94 0 0.0 0.0 0.00 0.00 0.00 29 1007.9
20260509224555 94 0 0.0 0.0 0.00 0.00 0.00 26 1007.9
20260509224029 94 0 0.0 0.0 0.00 0.00 0.00 31 1007.8
20260509223529 94 0 0.0 0.0 0.00 0.00 0.00 27 1007.8
20260509223047 94 0 0.0 0.0 0.00 0.00 0.00 26 1007.8
20260509222528 93 0 0.0 0.0 0.00 0.00 0.00 28 1007.8
20260509222035 94 0 0.0 0.0 0.00 0.00 0.00 28 1007.8
20260509221541 94 0 0.0 0.0 0.00 0.00 0.00 27 1007.8
20260509221032 95 0 0.0 0.0 0.00 0.00 0.00 27 1007.8
20260509220532 95 0 0.0 0.0 0.00 0.00 0.00 26 1007.8
20260509220047 97 0 0.0 0.0 0.00 0.00 0.00 24 1007.8
20260509215532 98 0 0.0 0.0 0.00 0.00 0.00 21 1007.9
20260509215030 98 0 0.0 0.0 0.00 0.00 0.00 27 1008.0
20260509214546 99 0 0.0 0.0 0.00 0.00 0.00 23 1008.0
20260509214034 99 0 0.0 0.0 0.00 0.00 0.00 29 1008.0
20260509213530 98 0 0.0 0.0 0.00 0.00 0.00 29 1008.0
20260509213046 97 0 0.0 0.0 0.00 0.00 0.00 30 1008.0
20260509212528 98 0 0.0 0.0 0.00 0.00 0.00 27 1008.1
20260509212033 97 0 0.0 0.0 0.00 0.00 0.00 30 1008.2
20260509211541 97 0 0.0 0.0 0.00 0.00 0.00 26 1008.2
20260509211029 96 0 0.0 0.0 0.00 0.00 0.00 27 1008.4
20260509210534 96 0 0.0 0.0 0.00 0.00 0.00 22 1008.4
20260509210047 95 0 0.0 0.0 0.00 0.00 0.00 27 1008.5
20260509205528 95 0 0.0 0.0 0.00 0.00 0.00 26 1008.6
20260509205029 95 0 0.0 0.0 0.00 0.00 0.00 24 1008.7
20260509204546 95 0 0.0 0.0 0.00 0.00 0.00 24 1008.7
20260509204032 95 0 0.0 0.0 0.00 0.00 0.00 27 1008.8
20260509203529 96 0 0.0 0.0 0.00 0.00 0.00 27 1008.8
20260509203053 96 0 0.0 0.0 0.00 0.00 0.00 31 1008.9
20260509202529 95 0 0.0 0.0 0.00 0.00 0.00 32 1009.1
20260509202029 95 0 0.0 0.0 0.00 0.00 0.00 33 1009.1
20260509201544 95 0 0.0 0.0 0.00 0.00 0.00 33 1009.1
20260509201030 94 0 0.0 0.0 0.00 0.00 0.00 31 1009.3
20260509200529 95 0 0.0 0.0 0.00 0.00 0.00 28 1009.3
20260509200042 95 0 0.0 0.0 0.00 0.00 0.00 31 1009.4
20260509195530 95 0 0.0 0.0 0.00 0.00 0.00 33 1009.4
20260509195028 95 0 0.0 0.0 0.00 0.00 0.00 33 1009.4
20260509194540 95 0 0.0 0.0 0.00 0.00 0.00 34 1009.5
20260509194032 95 0 0.0 0.0 0.00 0.00 0.00 38 1009.5
20260509193530 95 0 0.0 0.0 0.00 0.00 0.00 39 1009.5
20260509193047 95 0 0.0 0.0 0.00 0.00 0.00 36 1009.5
20260509192529 95 0 0.0 0.0 0.00 0.00 0.00 36 1009.6
20260509192029 95 0 0.0 0.0 0.00 0.00 0.00 34 1009.6
20260509191547 95 0 0.0 0.0 0.00 0.00 0.00 35 1009.6
20260509191032 95 0 0.0 0.0 0.00 0.00 0.00 35 1009.6
20260509190531 95 0 0.0 0.0 0.00 0.00 0.00 34 1009.7
20260509190044 95 0 0.0 0.0 0.00 0.00 0.00 40 1009.7
20260509185529 94 0 0.0 0.0 0.00 0.00 0.00 40 1009.8
20260509185032 94 0 0.0 0.0 0.00 0.00 0.00 36 1009.7
20260509184546 94 0 0.0 0.0 0.00 0.00 0.00 39 1009.8
20260509184033 94 0 0.0 0.0 0.00 0.00 0.00 39 1009.9
20260509183529 94 0 0.0 0.0 0.00 0.00 0.00 39 1009.9
20260509183048 94 0 0.0 0.0 0.00 0.00 0.00 32 1009.9
20260509182528 93 0 0.0 0.0 0.00 0.00 0.00 32 1010.0
20260509182029 93 0 0.0 0.0 0.00 0.00 0.00 37 1010.1
20260509181554 93 0 0.0 0.0 0.00 0.00 0.00 40 1010.0
20260509181030 92 0 0.0 0.0 0.00 0.00 0.00 40 1010.1
20260509180529 92 0 0.0 0.0 0.00 0.00 0.00 37 1010.1
20260509180110 92 0 0.0 0.0 0.00 0.00 0.00 36 1010.2
20260509175529 92 0 0.0 0.0 0.00 0.00 0.00 36 1010.3
20260509175029 93 0 0.0 0.0 0.00 0.00 0.00 37 1010.3
20260509174545 92 0 0.0 0.0 0.00 0.00 0.00 38 1010.3
20260509174028 92 0 0.0 0.0 0.00 0.00 0.00 38 1010.4
20260509173528 92 0 0.0 0.0 0.00 0.00 0.00 39 1010.6
20260509173049 92 0 0.0 0.0 0.00 0.00 0.00 38 1010.5
20260509172532 91 0 0.0 0.0 0.00 0.00 0.00 39 1010.5
20260509172029 91 0 0.0 0.0 0.00 0.00 0.00 40 1010.6
20260509171549 91 0 0.0 0.0 0.00 0.00 0.00 40 1010.6
20260509171028 91 0 0.0 0.0 0.00 0.00 0.00 38 1010.7
20260509170529 91 0 0.0 0.0 0.00 0.00 0.00 39 1010.7
20260509170051 90 0 0.0 0.0 0.00 0.00 0.00 38 1010.8
20260509165530 90 0 0.0 0.0 0.00 0.00 0.00 39 1010.7
20260509165029 89 0 0.0 0.0 0.00 0.00 0.00 39 1010.9
20260509164545 89 0 0.0 0.0 0.00 0.00 0.00 40 1010.8
20260509164030 88 0 0.0 0.0 0.00 0.00 0.00 43 1010.9
20260509163529 88 0 0.0 0.0 0.00 0.00 0.00 43 1010.9
20260509163044 88 0 0.0 0.0 0.00 0.00 0.00 39 1010.9
20260509162529 87 0 0.0 0.0 0.00 0.00 0.00 45 1010.9
20260509162029 87 0 0.0 0.0 0.00 0.00 0.00 43 1010.9
20260509161550 86 0 0.0 0.0 0.00 0.00 0.00 45 1010.9
20260509161029 86 0 0.0 0.0 0.00 0.00 0.00 45 1010.9
20260509160529 85 0 0.0 0.0 0.00 0.00 0.00 48 1011.0
20260509160040 85 0 0.0 0.0 0.00 0.00 0.00 48 1010.8
20260509155528 85 0 0.0 0.0 0.00 0.00 0.00 49 1010.9
20260509155028 84 0 0.0 0.0 0.00 0.00 0.00 48 1010.9
20260509154546 84 0 0.0 0.0 0.00 0.00 0.00 55 1010.8
20260509154029 83 0 0.0 0.0 0.00 0.00 0.00 55 1010.9
20260509153531 82 0 0.0 0.0 0.00 0.00 0.00 56 1010.7
20260509153054 82 0 0.0 0.0 0.00 0.00 0.00 56 1010.6
20260509152529 81 0 0.0 0.0 0.00 0.00 0.00 57 1010.4
20260509152030 81 0 0.0 0.0 0.00 0.00 0.00 57 1010.3
20260509151556 81 0 0.0 0.0 0.00 0.00 0.00 58 1010.4
20260509151029 80 0 0.0 0.0 0.00 0.00 0.00 59 1010.5
20260509150531 80 0 0.0 0.0 0.00 0.00 0.00 60 1010.6
20260509150040 79 0 0.0 0.0 0.00 0.00 0.00 61 1010.6
20260509145529 78 0 0.0 0.0 0.00 0.00 0.00 62 1010.7
20260509145029 78 0 0.0 0.0 0.00 0.00 0.00 63 1010.8
20260509144539 77 0 0.0 0.0 0.00 0.00 0.00 64 1010.8
20260509144029 77 0 0.0 0.0 0.00 0.00 0.00 65 1010.8
20260509143529 76 0 0.0 0.0 0.00 0.00 0.00 65 1010.9
20260509143057 76 0 0.0 0.0 0.00 0.00 0.00 65 1010.8
20260509142528 75 0 0.0 0.0 0.00 0.00 0.00 65 1010.7
20260509142029 75 0 0.0 0.0 0.00 0.00 0.00 67 1010.7
20260509141544 74 0 0.0 0.0 0.00 0.00 0.00 67 1010.7
20260509141029 74 0 0.0 0.0 0.00 0.00 0.00 69 1010.9
20260509140529 73 0 0.0 0.0 0.00 0.00 0.00 70 1010.8
20260509140046 73 0 0.0 0.0 0.00 0.00 0.00 70 1010.8
20260509135531 72 0 0.0 0.0 0.00 0.00 0.00 71 1010.8
20260509135029 72 0 0.0 0.0 0.00 0.00 0.00 72 1010.8
20260509134540 72 0 0.0 0.0 0.00 0.00 0.00 72 1010.7
20260509134029 71 0 0.0 0.0 0.00 0.00 0.00 73 1010.7
20260509133529 70 0 0.0 0.0 0.00 0.00 0.00 74 1010.6
20260509133057 70 0 0.0 0.0 0.00 0.00 0.00 75 1010.6
20260509132534 69 0 0.0 0.0 0.00 0.00 0.00 75 1010.5
20260509132029 69 0 0.0 0.0 0.00 0.00 0.00 77 1010.6
20260509131539 69 0 0.0 0.0 0.00 0.00 0.00 78 1010.5
20260509131029 69 0 0.0 0.0 0.00 0.00 0.00 78 1010.3
20260509130531 69 0 0.0 0.0 0.00 0.00 0.00 79 1010.1
20260509130048 69 0 0.0 0.0 0.00 0.00 0.00 79 1010.2
20260509125532 69 0 0.0 0.0 0.00 0.00 0.00 79 1010.1
20260509125029 68 0 0.0 0.0 0.00 0.00 0.00 78 1010.1
20260509124542 68 0 0.0 0.0 0.00 0.00 0.00 78 1010.1
20260509124029 68 0 0.0 0.0 0.00 0.00 0.00 78 1010.0
20260509123529 68 0 0.0 0.0 0.00 0.00 0.00 78 1009.8
20260509123041 68 0 0.0 0.0 0.00 0.00 0.00 78 1009.9
20260509122528 68 0 0.0 0.0 0.00 0.00 0.00 78 1010.0
20260509122029 68 0 0.0 0.0 0.00 0.00 0.00 78 1010.2
20260509121546 68 0 0.0 0.0 0.00 0.00 0.00 78 1010.2
20260509121029 69 0 0.0 0.0 0.00 0.00 0.00 78 1010.3
20260509120530 69 0 0.0 0.0 0.00 0.00 0.00 78 1010.3
20260509120040 69 0 0.0 0.0 0.00 0.00 0.00 78 1010.2
20260509115529 69 0 0.0 0.0 0.00 0.00 0.00 78 1010.3
20260509115029 69 0 0.0 0.0 0.00 0.00 0.00 78 1010.2
20260509114539 69 0 0.0 0.0 0.00 0.00 0.00 78 1010.4
20260509114029 69 0 0.0 0.0 0.00 0.00 0.00 78 1010.3
20260509113529 69 0 0.0 0.0 0.00 0.00 0.00 78 1010.3
20260509113046 69 0 0.0 0.0 0.00 0.00 0.00 78 1010.3
20260509112529 70 0 0.0 0.0 0.00 0.00 0.00 78 1010.4
20260509112029 70 0 0.0 0.0 0.00 0.00 0.00 78 1010.3
20260509111543 70 0 0.0 0.0 0.00 0.00 0.00 78 1010.2
20260509111029 70 0 0.0 0.0 0.00 0.00 0.00 78 1010.1
20260509110528 70 0 0.0 0.0 0.00 0.00 0.00 79 1010.0
20260509110045 70 0 0.0 0.0 0.00 0.00 0.00 79 1009.8
20260509105530 70 0 0.0 0.0 0.00 0.00 0.00 79 1009.7
20260509105030 70 0 0.0 0.0 0.00 0.00 0.00 79 1009.8
20260509104559 70 0 0.0 0.0 0.00 0.00 0.00 78 1009.7
20260509104029 69 0 0.0 1.0 0.00 0.00 0.00 78 1009.7
20260509103529 70 0 0.0 3.0 0.00 0.00 0.00 78 1009.1
20260509103042 70 0 0.0 3.0 0.00 0.00 0.00 78 1008.3
20260509102529 70 0 0.0 3.0 0.00 0.00 0.00 78 1008.1
20260509102030 69 0 0.0 3.0 0.00 0.00 0.00 78 1007.9
20260509101547 69 0 0.0 3.0 0.00 0.00 0.00 78 1007.9
20260509101031 69 0 0.0 3.0 0.00 0.00 0.00 78 1007.9
20260509100529 69 0 0.0 3.0 0.00 0.00 0.00 79 1007.8
20260509100043 69 40 0.0 4.0 0.00 0.00 0.00 79 1007.7
20260509095529 69 0 0.0 4.0 0.00 0.00 0.00 79 1007.4
20260509095028 69 40 1.0 4.0 0.00 0.00 0.00 78 1007.3
20260509094542 69 40 0.0 2.0 0.00 0.00 0.00 78 1007.6
20260509094029 69 0 0.0 2.0 0.00 0.00 0.00 78 1007.7
20260509093530 69 0 0.0 3.0 0.00 0.00 0.00 78 1007.7
20260509093042 69 0 0.0 3.0 0.00 0.00 0.00 78 1007.8
20260509092529 69 0 0.0 3.0 0.00 0.00 0.00 78 1007.8
20260509092029 69 0 0.0 4.0 0.00 0.00 0.00 78 1007.9
20260509091544 68 0 0.0 4.0 0.00 0.00 0.00 78 1008.0
20260509091029 69 0 1.0 4.0 0.00 0.00 0.00 78 1008.1
20260509090530 69 40 0.0 3.0 0.00 0.00 0.00 78 1008.2
20260509090054 69 40 0.0 2.0 0.00 0.00 0.00 78 1008.3
20260509085529 69 40 0.0 1.0 0.00 0.00 0.00 78 1008.6
20260509085029 69 0 0.0 1.0 0.00 0.00 0.00 78 1008.7
20260509084545 69 0 0.0 1.0 0.00 0.00 0.00 78 1008.6
20260509084029 69 0 0.0 1.0 0.00 0.00 0.00 78 1008.8
20260509083529 69 0 0.0 3.0 0.00 0.00 0.00 78 1009.1
20260509083040 69 0 0.0 3.0 0.00 0.00 0.00 78 1009.2
20260509082530 69 40 0.0 2.0 0.00 0.00 0.00 78 1009.2
20260509082029 69 0 0.0 0.0 0.00 0.00 0.00 78 1009.8
20260509081550 69 0 0.0 0.0 0.00 0.00 0.00 78 1010.0
20260509081029 69 0 0.0 0.0 0.00 0.00 0.00 78 1010.3
20260509080529 69 0 0.0 0.0 0.00 0.00 0.00 78 1010.6
20260509080040 69 0 0.0 0.0 0.00 0.00 0.00 78 1010.9
20260509075529 69 0 0.0 0.0 0.00 0.00 0.00 78 1011.1
20260509075031 69 0 0.0 0.0 0.00 0.00 0.00 78 1011.7
20260509074550 69 0 0.0 0.0 0.00 0.00 0.00 78 1011.9
20260509074029 69 0 0.0 0.0 0.00 0.00 0.00 78 1011.9
20260509073529 69 0 0.0 0.0 0.00 0.00 0.00 78 1011.8
20260509073048 69 0 0.0 0.0 0.00 0.00 0.00 78 1011.8
20260509072528 69 0 0.0 0.0 0.00 0.00 0.00 78 1011.7
20260509072028 69 0 0.0 0.0 0.00 0.00 0.00 78 1011.7
20260509071551 69 0 0.0 0.0 0.00 0.00 0.00 78 1011.6
20260509071029 69 0 0.0 0.0 0.00 0.00 0.00 78 1011.4
20260509070529 69 0 0.0 0.0 0.00 0.00 0.00 78 1011.4
20260509070049 69 0 0.0 0.0 0.00 0.00 0.00 78 1011.4
20260509065530 69 0 0.0 0.0 0.00 0.00 0.00 77 1011.8
20260509065028 69 0 0.0 0.0 0.00 0.00 0.00 77 1011.9
20260509064539 68 0 0.0 0.0 0.00 0.00 0.00 77 1011.7
20260509064030 68 0 0.0 0.0 0.00 0.00 0.00 77 1011.5
20260509063529 68 0 0.0 0.0 0.00 0.00 0.00 77 1011.4
20260509063103 68 0 0.0 0.0 0.00 0.00 0.00 77 1011.3
20260509062529 68 0 0.0 0.0 0.00 0.00 0.00 76 1011.3
20260509062030 68 0 0.0 0.0 0.00 0.00 0.00 75 1011.2
20260509061609 68 0 0.0 0.0 0.00 0.00 0.00 75 1011.2
20260509061033 68 0 0.0 0.0 0.00 0.00 0.00 75 1010.9
20260509060529 69 0 0.0 0.0 0.00 0.00 0.00 76 1010.9
20260509060055 69 0 0.0 0.0 0.00 0.00 0.00 76 1010.9
20260509055529 69 0 0.0 0.0 0.00 0.00 0.00 76 1010.5
20260509055028 69 0 0.0 0.0 0.00 0.00 0.00 75 1010.4
20260509054543 69 0 0.0 0.0 0.00 0.00 0.00 75 1010.6
20260509054029 69 0 0.0 0.0 0.00 0.00 0.00 75 1010.6
20260509053529 69 0 0.0 0.0 0.00 0.00 0.00 75 1010.6
20260509053044 69 0 0.0 0.0 0.00 0.00 0.00 75 1010.7
20260509052530 69 0 0.0 0.0 0.00 0.00 0.00 75 1010.6
20260509052029 70 0 0.0 0.0 0.00 0.00 0.00 75 1010.6
20260509051545 70 0 0.0 0.0 0.00 0.00 0.00 75 1010.4
20260509051029 70 0 0.0 0.0 0.00 0.00 0.00 75 1010.4
20260509050529 70 0 0.0 0.0 0.00 0.00 0.00 74 1010.6
20260509050049 70 0 0.0 0.0 0.00 0.00 0.00 74 1010.8
20260509045531 70 0 0.0 0.0 0.00 0.00 0.00 74 1011.1
20260509045029 70 0 0.0 0.0 0.00 0.00 0.00 74 1011.0
20260509044543 70 0 0.0 0.0 0.00 0.00 0.00 74 1011.1
20260509044028 70 0 0.0 0.0 0.00 0.00 0.00 74 1010.9
20260509043528 70 0 0.0 0.0 0.00 0.00 0.00 74 1010.9
20260509043049 71 0 0.0 0.0 0.00 0.00 0.00 74 1010.6
20260509042529 71 0 0.0 0.0 0.00 0.00 0.00 74 1010.4
20260509042030 71 0 0.0 0.0 0.00 0.00 0.00 74 1010.3
20260509041546 71 0 0.0 0.0 0.00 0.00 0.00 74 1010.3
20260509041029 71 0 0.0 0.0 0.00 0.00 0.00 74 1010.3
20260509040532 71 0 0.0 0.0 0.00 0.00 0.00 73 1010.4
20260509040048 72 0 0.0 0.0 0.00 0.00 0.00 73 1010.6
20260509035529 72 0 0.0 0.0 0.00 0.00 0.00 72 1010.6
20260509035029 72 0 0.0 0.0 0.00 0.00 0.00 73 1010.6
20260509034546 72 0 0.0 0.0 0.00 0.00 0.00 73 1010.4
20260509034029 72 0 0.0 0.0 0.00 0.00 0.00 73 1010.3
20260509033532 72 0 0.0 0.0 0.00 0.00 0.00 72 1010.2
20260509033046 72 0 0.0 0.0 0.00 0.00 0.00 72 1010.0
20260509032529 73 0 0.0 0.0 0.00 0.00 0.00 72 1010.0
20260509032029 73 0 0.0 0.0 0.00 0.00 0.00 72 1009.9
20260509031542 73 0 0.0 0.0 0.00 0.00 0.00 72 1009.8
20260509031030 73 0 0.0 0.0 0.00 0.00 0.00 72 1009.7
20260509030530 73 0 0.0 0.0 0.00 0.00 0.00 72 1009.7
20260509030051 73 0 0.0 0.0 0.00 0.00 0.00 72 1009.7
20260509025533 73 0 0.0 0.0 0.00 0.00 0.00 72 1009.7
20260509025033 73 0 0.0 0.0 0.00 0.00 0.00 72 1009.8
20260509024545 73 0 0.0 0.0 0.00 0.00 0.00 72 1009.8
20260509024029 73 0 0.0 0.0 0.00 0.00 0.00 72 1009.7
20260509023529 73 0 0.0 0.0 0.00 0.00 0.00 71 1009.6
20260509023044 73 0 0.0 0.0 0.00 0.00 0.00 71 1009.5
20260509022531 73 0 0.0 0.0 0.00 0.00 0.00 71 1009.4
20260509022031 73 0 0.0 0.0 0.00 0.00 0.00 71 1009.3
20260509021546 73 0 0.0 0.0 0.00 0.00 0.00 71 1009.3
20260509021031 73 0 0.0 0.0 0.00 0.00 0.00 71 1009.4
20260509020529 73 0 0.0 0.0 0.00 0.00 0.00 71 1009.4
20260509020054 73 0 0.0 0.0 0.00 0.00 0.00 70 1009.2
20260509015530 73 0 0.0 0.0 0.00 0.00 0.00 70 1009.1
20260509015029 73 0 0.0 0.0 0.00 0.00 0.00 70 1009.0
20260509014549 74 0 0.0 0.0 0.00 0.00 0.00 70 1009.0
20260509014029 74 0 0.0 0.0 0.00 0.00 0.00 70 1009.0
20260509013529 74 0 0.0 0.0 0.00 0.00 0.00 69 1009.0
20260509013050 74 0 0.0 0.0 0.00 0.00 0.00 69 1009.0
20260509012529 74 0 0.0 0.0 0.00 0.00 0.00 69 1008.9
20260509012029 74 0 0.0 0.0 0.00 0.00 0.00 69 1008.9
20260509011544 74 0 0.0 0.0 0.00 0.00 0.00 69 1008.9
20260509011029 74 0 0.0 0.0 0.00 0.00 0.00 68 1008.8
20260509010530 74 0 0.0 0.0 0.00 0.00 0.00 68 1008.7
20260509010040 75 0 0.0 0.0 0.00 0.00 0.00 68 1008.5
20260509005529 75 0 0.0 0.0 0.00 0.00 0.00 68 1008.5
20260509005030 75 0 0.0 0.0 0.00 0.00 0.00 68 1008.4
20260509004540 75 0 0.0 0.0 0.00 0.00 0.00 68 1008.4
20260509004029 75 0 0.0 0.0 0.00 0.00 0.00 67 1008.6
20260509003531 75 0 0.0 0.0 0.00 0.00 0.00 67 1008.6
20260509003043 75 0 0.0 0.0 0.00 0.00 0.00 67 1008.6
20260509002529 75 0 0.0 0.0 0.00 0.00 0.00 66 1008.6
20260509002029 76 0 0.0 0.0 0.00 0.00 0.00 66 1008.6
20260509001547 76 0 0.0 0.0 0.00 0.00 0.00 66 1008.4
20260509001030 76 0 0.0 0.0 0.00 0.00 0.00 66 1008.4
20260509000529 76 0 0.0 0.0 0.00 0.00 0.00 65 1008.4
20260509000043 76 0 0.0 1.0 0.00 0.00 0.00 65 1008.4
20260508235529 76 0 0.0 1.0 0.00 0.00 0.00 65 1008.4
20260508235029 76 0 0.0 0.0 0.00 0.00 0.00 65 1008.3
20260508234544 76 0 0.0 1.0 0.00 0.00 0.00 65 1008.3
20260508234032 76 0 0.0 1.0 0.00 0.00 0.00 65 1008.4
20260508233529 76 0 0.0 1.0 0.00 0.00 0.00 65 1008.3
20260508233051 77 0 0.0 1.0 0.00 0.00 0.00 65 1008.4
20260508232530 77 0 0.0 1.0 0.00 0.00 0.00 65 1008.4
20260508232029 77 0 0.0 1.0 0.00 0.00 0.00 64 1008.4
20260508231547 77 0 0.0 0.0 0.00 0.00 0.00 65 1008.4
20260508231030 77 0 0.0 1.0 0.00 0.00 0.00 65 1008.4
20260508230529 77 0 0.0 1.0 0.00 0.00 0.00 65 1008.4